STARLINK-1298 (45413 NORAD) Tracking and Keplerian Element Data

This shows tracking and keplerian element data for the satellite.

Feedback or suggestion? Click here.




ElementValue
Catalog45413
NameSTARLINK-1298
Epoch Orbit1790
Epoch Day190.25001157
Epoch Year2020
RAAN71.2147
Inclination52.9998
Eccentricity0.0001543
Argument of Perigee60.1695
Mean Anonmoly79.3003
Mean Motion15.14029271
Decay Rate-0.01119128
L11 45413U 20019BF 20190.25001157 -.01119128 00000-0 -65943-1 0 9995
L22 45413 52.9998 71.2147 0001543 60.1695 79.3003 15.14029271 17904

Live tracking and technical data element details for STARLINK-1298 (NORAD 45413). STARLINK-1298 can be tracked NOW for your location showing map with azimuth and elevation plus other details from your city location.

Track the satellite on the map from your city or location and see movement details for azimuth, elevation, latitude, longitude, range, height, and movement on the map or in text.







IsCatalogInMostPopularTable: catalog: 45413, numindb: 32
Update: records affected: 1



GetName: 45413 STARLINK-1298

Hit Count: updated at: Fri, 10 Jul 2020 03:58:32 GMT